Date String (YYYY-MM-DD hh:mm:ss) UTC,Instrument flags,absolute air pressure of the measurement (hPa),sample flow rate (lpm),inlet stack bypass flow (lpm),air temperature of the measurement (°C),ambient temperature measured by the external sensor (°C),aerosol sample conditioner tube jacket temperature (°C),OPC LED temperature (°C),internal box temperature (°C),relative humidity of the measurement (%),span deviation,mass concentration of particles derived from Lorenz-Mie calculation of OPC scattering (μg/m³),mass concentration of particles derived from Lorenz-Mie calculation of OPC scattering (μg/m³),mass concentration of particles derived from Lorenz-Mie calculation of OPC scattering (μg/m³)
DateTimeUTC,F1_M11,P_M11,Q1_M11,Q2_M11,T1_M11,T2_M11,T3_M11,T4_M11,T5_M11,U1_M11,ZSPAN_M11,X2_M11,X0_M11,X1_M11
2024-01-12 22:00:00,SystemResetWarning,0813.8,5.00,000.00,018.7,017.2,000.0,027.2,020.0,7.8,0000.0,0000.75,0003.71,0000.44
2024-01-12 22:01:00,SystemResetWarning,0813.9,4.99,000.00,018.8,017.2,000.0,027.2,020.0,7.8,0000.0,0000.68,0003.49,0000.43
2024-01-12 22:02:00,SystemResetWarning,0813.9,5.00,000.00,018.7,017.1,000.0,027.2,020.0,7.8,0000.0,0000.68,0002.89,0000.42
2024-01-12 22:03:00,SystemResetWarning,0813.8,5.00,000.00,018.7,017.1,000.0,027.2,020.0,8.0,0000.0,0000.71,0002.22,0000.43
2024-01-12 22:04:00,SystemResetWarning,0813.9,5.00,000.00,018.8,017.3,000.0,027.2,020.2,8.0,0000.0,0000.76,0002.11,0000.43
2024-01-12 22:05:00,SystemResetWarning,0814.0,5.01,000.00,018.9,018.1,000.0,027.2,020.7,7.9,0000.0,0000.76,0001.98,0000.43
2024-01-12 22:06:00,SystemResetWarning,0814.0,4.99,000.00,019.0,018.8,000.0,027.2,020.8,7.9,0000.0,0000.78,0002.06,0000.43
2024-01-12 22:07:00,SystemResetWarning,0813.9,4.99,000.00,019.0,018.8,000.0,027.2,020.5,8.0,0000.0,0000.81,0002.03,0000.44
2024-01-12 22:08:00,SystemResetWarning,0813.9,5.00,000.00,019.0,018.6,000.0,027.2,020.2,7.9,0000.0,0000.86,0002.12,0000.44
2024-01-12 22:09:00,SystemResetWarning,0813.9,5.00,000.00,019.0,018.4,000.0,027.1,020.1,7.9,0000.0,0000.89,0002.25,0000.45
2024-01-12 22:10:00,SystemResetWarning,0813.9,5.00,000.00,018.9,018.2,000.0,027.2,020.0,7.8,0000.0,0000.87,0002.26,0000.45
2024-01-12 22:11:00,SystemResetWarning,0813.9,5.00,000.00,018.9,018.0,000.0,027.2,020.0,8.0,0000.0,0000.89,0002.30,0000.45
2024-01-12 22:12:00,SystemResetWarning,0813.9,5.00,000.00,018.8,017.9,000.0,027.2,020.0,8.0,0000.0,0000.96,0002.42,0000.47
2024-01-12 22:13:00,SystemResetWarning,0813.9,5.01,000.00,018.8,017.7,000.0,027.2,020.0,8.0,0000.0,0000.99,0002.49,0000.49
2024-01-12 22:14:00,SystemResetWarning,0813.9,5.01,000.00,018.8,017.6,000.0,027.2,020.0,8.1,0000.0,0000.99,0002.26,0000.50
2024-01-12 22:15:00,SystemResetWarning,0813.9,4.99,000.00,018.8,017.6,000.0,027.2,020.0,8.1,0000.0,0000.94,0002.01,0000.50
2024-01-12 22:16:00,SystemResetWarning,0813.8,5.00,000.00,018.8,017.5,000.0,027.2,020.0,8.2,0000.0,0000.95,0004.10,0000.50
2024-01-12 22:17:00,SystemResetWarning,0813.9,5.00,000.00,018.8,017.4,000.0,027.2,020.0,8.2,0000.0,0000.93,0004.41,0000.50
2024-01-12 22:18:00,SystemResetWarning,0813.8,5.00,000.00,018.7,017.4,000.0,027.2,020.0,8.4,0000.0,0000.97,0004.68,0000.50
2024-01-12 22:19:00,SystemResetWarning,0813.8,4.99,000.00,018.7,017.3,000.0,027.2,020.0,8.4,0000.0,0001.12,0005.65,0000.51
2024-01-12 22:20:00,SystemResetWarning,0813.8,5.00,000.00,018.7,017.3,000.0,027.3,020.0,8.5,0000.0,0001.18,0006.24,0000.51
2024-01-12 22:21:00,SystemResetWarning,0813.7,5.00,000.00,018.7,017.3,000.0,027.3,020.0,8.5,0000.0,0001.21,0006.29,0000.51
2024-01-12 22:22:00,SystemResetWarning,0813.8,5.00,000.00,018.7,017.3,000.0,027.3,020.0,8.5,0000.0,0001.21,0006.34,0000.51
2024-01-12 22:23:00,SystemResetWarning,0813.9,4.99,000.00,018.7,017.3,000.0,027.3,020.0,8.4,0000.0,0001.23,0006.38,0000.51
2024-01-12 22:24:00,SystemResetWarning,0813.9,5.02,000.00,018.7,017.2,000.0,027.3,020.0,8.4,0000.0,0001.23,0006.54,0000.51
2024-01-12 22:25:00,SystemResetWarning,0813.9,5.01,000.00,018.7,017.2,000.0,027.3,020.0,8.4,0000.0,0001.26,0006.64,0000.50
2024-01-12 22:26:00,SystemResetWarning,0813.9,5.00,000.00,018.7,017.2,000.0,027.3,020.0,8.3,0000.0,0001.31,0006.78,0000.51
2024-01-12 22:27:00,SystemResetWarning,0814.0,5.00,000.00,018.7,017.1,000.0,027.2,020.0,8.4,0000.0,0001.30,0005.68,0000.51
2024-01-12 22:28:00,SystemResetWarning,0813.9,5.00,000.00,018.7,017.1,000.0,027.2,020.0,8.5,0000.0,0001.28,0004.42,0000.50
2024-01-12 22:29:00,SystemResetWarning,0813.9,5.00,000.00,018.7,017.1,000.0,027.2,020.0,8.6,0000.0,0001.25,0005.63,0000.50
2024-01-12 22:30:00,SystemResetWarning,0813.9,5.00,000.00,018.7,017.1,000.0,027.2,020.0,8.6,0000.0,0001.05,0004.48,0000.49
2024-01-12 22:31:00,SystemResetWarning,0813.9,5.01,000.00,018.7,017.1,000.0,027.2,020.0,8.6,0000.0,0000.99,0003.91,0000.49
2024-01-12 22:32:00,SystemResetWarning,0813.9,5.01,000.00,018.7,017.1,000.0,027.2,020.0,8.6,0000.0,0000.94,0003.61,0000.49
2024-01-12 22:33:00,SystemResetWarning,0813.9,5.00,000.00,018.6,017.1,000.0,027.2,020.0,8.6,0000.0,0000.90,0003.44,0000.49
2024-01-12 22:34:00,SystemResetWarning,0813.9,4.99,000.00,018.6,017.1,000.0,027.2,020.0,8.6,0000.0,0000.91,0003.48,0000.49
2024-01-12 22:35:00,SystemResetWarning,0813.9,4.99,000.00,018.6,017.1,000.0,027.2,020.0,8.6,0000.0,0000.87,0003.38,0000.50
2024-01-12 22:36:00,SystemResetWarning,0813.9,5.01,000.00,018.6,017.1,000.0,027.2,020.0,8.6,0000.0,0000.83,0003.25,0000.50
2024-01-12 22:37:00,SystemResetWarning,0813.9,5.01,000.00,018.6,017.0,000.0,027.2,020.0,8.5,0000.0,0000.81,0003.25,0000.51
2024-01-12 22:38:00,SystemResetWarning,0813.8,5.01,000.00,018.6,017.0,000.0,027.2,020.0,8.5,0000.0,0000.87,0003.80,0000.51
2024-01-12 22:39:00,SystemResetWarning,0813.9,5.00,000.00,018.6,017.0,000.0,027.2,020.0,8.5,0000.0,0000.89,0004.04,0000.53
2024-01-12 22:40:00,SystemResetWarning,0813.9,4.99,000.00,018.6,017.0,000.0,027.2,020.0,8.5,0000.0,0000.95,0002.68,0000.52
2024-01-12 22:41:00,SystemResetWarning,0814.0,5.00,000.00,018.6,017.1,000.0,027.2,020.1,8.6,0000.0,0000.98,0002.83,0000.53
2024-01-12 22:42:00,SystemResetWarning,0814.1,5.01,000.00,018.7,017.8,000.0,027.2,020.5,8.5,0000.0,0000.96,0002.81,0000.52
2024-01-12 22:43:00,SystemResetWarning,0814.1,5.01,000.00,018.9,018.7,000.0,027.2,020.8,8.6,0000.0,0000.97,0002.90,0000.51
2024-01-12 22:44:00,SystemResetWarning,0814.0,4.98,000.00,019.0,018.8,000.0,027.2,020.6,8.5,0000.0,0000.96,0002.94,0000.51
2024-01-12 22:45:00,SystemResetWarning,0813.9,5.01,000.00,018.9,018.7,000.0,027.2,020.3,8.5,0000.0,0000.96,0003.09,0000.51
2024-01-12 22:46:00,SystemResetWarning,0814.0,5.01,000.00,018.9,018.5,000.0,027.2,020.2,8.4,0000.0,0000.94,0003.04,0000.51
2024-01-12 22:47:00,SystemResetWarning,0814.0,5.00,000.00,018.9,018.3,000.0,027.2,020.1,8.5,0000.0,0000.94,0002.98,0000.50
2024-01-12 22:48:00,SystemResetWarning,0814.0,4.99,000.00,018.8,018.2,000.0,027.2,020.0,8.4,0000.0,0000.92,0002.86,0000.49
2024-01-12 22:49:00,SystemResetWarning,0813.9,4.99,000.00,018.8,018.0,000.0,027.2,020.0,8.3,0000.0,0000.86,0002.41,0000.48
2024-01-12 22:50:00,SystemResetWarning,0813.8,5.01,000.00,018.8,017.9,000.0,027.2,020.0,8.3,0000.0,0000.81,0002.11,0000.46
2024-01-12 22:51:00,SystemResetWarning,0813.7,5.02,000.00,018.8,017.9,000.0,027.2,020.0,8.4,0000.0,0000.78,0001.99,0000.46
2024-01-12 22:52:00,SystemResetWarning,0813.8,5.00,000.00,018.8,017.9,000.0,027.2,020.0,8.4,0000.0,0000.75,0001.78,0000.46
2024-01-12 22:53:00,SystemResetWarning,0813.9,4.99,000.00,018.8,017.9,000.0,027.2,020.0,8.4,0000.0,0000.75,0001.80,0000.47
2024-01-12 22:54:00,SystemResetWarning,0813.9,4.99,000.00,018.8,017.8,000.0,027.2,020.0,8.3,0000.0,0000.75,0001.74,0000.47
2024-01-12 22:55:00,SystemResetWarning,0813.9,4.99,000.00,018.8,017.8,000.0,027.2,020.0,8.3,0000.0,0000.77,0001.86,0000.47
2024-01-12 22:56:00,SystemResetWarning,0814.0,5.00,000.00,018.8,017.8,000.0,027.2,020.0,8.2,0000.0,0000.74,0001.61,0000.46
2024-01-12 22:57:00,SystemResetWarning,0813.9,5.01,000.00,018.8,017.7,000.0,027.2,020.0,8.1,0000.0,0000.75,0001.61,0000.46
2024-01-12 22:58:00,SystemResetWarning,0814.1,5.01,000.00,018.8,017.7,000.0,027.2,020.0,8.0,0000.0,0000.76,0002.15,0000.46
2024-01-12 22:59:00,SystemResetWarning,0814.1,5.00,000.00,018.8,017.7,000.0,027.2,020.0,7.9,0000.0,0000.79,0002.61,0000.46
